Location: Devargunta
(16.7631°N, 80.9077°E)
Time: 09:11:31
(UTC+00:00)

Cosmos 540 Rocket - Pass Details

Date: 17 May 2021
Orbit: 740 x 753 km, 74.1° (Epoch: 21 June)

Event Time Altitude Azimuth Distance (km) Brightness Sun altitude
Rises 13:21:03 0° 333° (NNW) 3,171 7.6 -5.3°
Reaches altitude 10° 13:23:34 10° 324° (NW) 2,249 7.0 -5.9°
Maximum altitude 13:28:10 35° 260° (W) 1,186 5.2 -6.9°
Drops below altitude 10° 13:32:46 10° 195° (SSW) 2,252 5.9 -7.9°
Sets 13:35:18 0° 186° (S) 3,176 6.5 -8.5°
